[[{"header":{"parameterUnit":"m.s-1","parameterCategory":1,"la1":30.2991,"la2":30.254,"lo1":-89.0895,"lo2":-89.0444,"dy":0.0017,"dx":0.0017,"nx":28,"ny":28,"refTime":"2025-11-15T09:00:00:Z","depth":0,"parameterNumber":2,"parameterNumberName":"U-component_of_WINDS"},"data":[0,0,0,0,0,0,0,0,0,0,0,0,0,0,0,0,0,0,0,0,0,0,0,0,0,0,0,0,0,0,0,0,0,0,0,0,0,0,0,0,0,0,0,0,0,0,0,0,0,0,0,0,0,0,0,0,0,0,0.4544,0.4544,0,0.4561,0.4561,0.4561,0.4532,0.4531,0.453,0.453,0.4549,0.455,0.4552,0,0,0,0,0,0,0,0,0,0,0,0,0,0.4487,0.4488,0.4543,0.4544,0.4544,0.4561,0.4561,0.4561,0.4533,0.4531,0.453,0.4529,0.4548,0.455,0.4552,0,0,0,0,0,0,0,0,0,0,0,0,0,0.4509,0.4488,0.4543,0.4532,0.4531,0.4561,0.4561,0.4561,0.4533,0.4531,0.453,0.4529,0.4548,0.455,0.4552,0.4595,0,0,0.4558,0.4559,0,0,0,0,0,0,0,0,0.4507,0.4511,0.4533,0.4533,0.4532,0.4543,0.4548,0.4573,0.4533,0.4532,0.4529,0.4528,0.4548,0.455,0.4557,0.4596,0.4596,0.4559,0.456,0.4561,0.4561,0,0,0,0,0,0,0,0.4506,0.451,0.455,0.4534,0.4533,0.4526,0.4527,0.4552,0.4548,0.4532,0.453,0.4532,0.4547,0.4555,0.4557,0.4597,0.4559,0.456,0.4562,0.4563,0.4671,0.4673,0,0,0,0,0,0,0.4506,0.4509,0.455,0.4551,0.4516,0.4528,0.453,0.4541,0.4548,0.4547,0.4534,0.4531,0.4552,0.4554,0.4557,0.4608,0.4561,0.4563,0.4564,0.467,0.4671,0.4673,0,0,0,0,0,0,0.4505,0.451,0.4549,0.4529,0.4534,0.4531,0.4543,0.4542,0.4549,0.4549,0.4548,0.4542,0.4551,0.4554,0.4585,0.4608,0.4564,0.4566,0.4668,0.467,0.4672,0.4709,0,0,0,0,0,0,0.4503,0.4509,0.4525,0.453,0.4535,0.4577,0.4545,0.4543,0.4553,0.4549,0.4556,0.4556,0.455,0.4582,0.4588,0.461,0.4567,0.4666,0.4669,0.4672,0.4706,0.4712,0.4718,0,0,0,0,0,0.4501,0.4536,0.4526,0.4532,0.4555,0.4578,0.4581,0.4573,0.4555,0.4571,0.4571,0.4556,0.4605,0.4586,0.4591,0.4615,0.4664,0.4668,0.4671,0.4703,0.4711,0.4718,0,0,0,0,0,0,0.4535,0.4536,0.4526,0.4563,0.457,0.4573,0.4593,0.4581,0.4595,0.4591,0.458,0.4582,0.4616,0.4618,0.4597,0.4657,0.4631,0.4636,0.4654,0.4661,0.4667,0.4666,0.4569,0,0,0,0,0,0.4546,0.4565,0.4565,0.4597,0.4602,0.4597,0.4607,0.4599,0.4607,0.461,0.4613,0.4621,0.4638,0.465,0.4666,0.4706,0.4707,0.4725,0.4731,0.4736,0.4741,0.4762,0.477,0.4685,0.4685,0.4685,0,0,0.4571,0.4574,0.4586,0.4604,0.4609,0.4629,0.46,0.4622,0.4636,0.4614,0.4643,0.4645,0.4654,0.469,0.4705,0.4693,0.4764,0.4741,0.4745,0.4746,0.4766,0.4775,0.4782,0.4687,0.4687,0.4687,0,0,0.4625,0.4629,0.4656,0.4662,0.467,0.4666,0.4673,0.4677,0.4677,0.4706,0.469,0.4707,0.4737,0.4744,0.4751,0.4807,0.4794,0.4812,0.4845,0.4866,0.4872,0.4878,0.4899,0.4906,0.4817,0.4817,0.4817,0,0.4655,0.4683,0.4672,0.4695,0.4704,0.4683,0.4711,0.4717,0.473,0.4736,0.4722,0.4758,0.4763,0.48,0.4814,0.482,0.4827,0.4812,0.4872,0.4878,0.4883,0.4903,0.491,0.4819,0.4819,0.4819,0.4819,0,0.4719,0.4739,0.476,0.4772,0.4783,0.4808,0.4801,0.4814,0.4805,0.4803,0.4833,0.4837,0.4854,0.4862,0.4854,0.4898,0.489,0.4874,0.4849,0.4894,0.4912,0.4919,0.4822,0.4822,0.4821,0.482,0,0,0.4796,0.4801,0.4809,0.4814,0.4821,0.4836,0.4861,0.4876,0.4887,0.4896,0.4916,0.4941,0.4927,0.4935,0.4928,0.4946,0.499,0.4928,0.4928,0.494,0.5039,0.5051,0.506,0.4981,0.4983,0.4984,0.5038,0,0.485,0.4892,0.4882,0.4923,0.4941,0.4922,0.4943,0.495,0.4948,0.4964,0.4962,0.498,0.496,0.4964,0.4982,0.4981,0.501,0.4977,0.5001,0.5002,0.5,0.5069,0.5082,0.5133,0.5045,0.5046,0.5047,0,0.492,0.4931,0.4973,0.4976,0.4984,0.5003,0.5016,0.5031,0.5038,0.5035,0.5044,0.5033,0.5057,0.5031,0.5065,0.5042,0.5051,0.5052,0.5054,0.5057,0.5028,0.5074,0.5149,0.5157,0.5058,0.5057,0.5056,0,0.4972,0.4998,0.5026,0.5031,0.5036,0.5049,0.5052,0.5057,0.5067,0.5078,0.5084,0.5099,0.5107,0.5118,0.5111,0.5093,0.5146,0.5119,0.5145,0.5145,0.5158,0.5157,0.5237,0.5163,0.5163,0.5162,0.5162,0,0.5034,0.5061,0.505,0.5068,0.5097,0.5086,0.5115,0.5116,0.5121,0.5138,0.5122,0.5139,0.5129,0.5145,0.514,0.5168,0.5172,0.5171,0.5169,0.5173,0.5173,0.5179,0.5176,0.5164,0.5164,0.5164,0.5163,0,0.5098,0.5091,0.5121,0.5123,0.5124,0.5145,0.5147,0.5163,0.516,0.5183,0.5187,0.5183,0.5201,0.5195,0.5215,0.5211,0.5248,0.5241,0.5245,0.5244,0.527,0.5268,0.5357,0.5368,0.5286,0.5287,0.5288,0,0.5138,0.5158,0.5161,0.5172,0.5175,0.5192,0.5202,0.5191,0.5202,0.5211,0.5226,0.5243,0.5256,0.5286,0.5284,0.5299,0.5293,0.5323,0.5296,0.5298,0.5294,0.5294,0.5296,0.5329,0.533,0.5331,0.5332,0,0.5211,0.5206,0.522,0.5233,0.5244,0.5254,0.5262,0.5272,0.5261,0.5274,0.5292,0.5302,0.5322,0.5339,0.5352,0.5355,0.5342,0.534,0.5347,0.5351,0.5353,0.5353,0.5261,0.5338,0.5338,0.5337,0.5337,0.5337,0.5264,0.5281,0.5286,0.5302,0.5306,0.5314,0.533,0.5328,0.5343,0.5358,0.5351,0.5372,0.5378,0.5394,0.5399,0.5415,0.5404,0.5414,0.5416,0.5419,0.5423,0.535,0.5417,0.5417,0.5417,0.5417,0.5417,0,0.5336,0.5338,0.5352,0.5364,0.5377,0.5362,0.537,0.5382,0.54,0.5407,0.5419,0.544,0.5456,0.5456,0.5471,0.5484,0.5478,0.5488,0.5488,0.5488,0.5432,0.5425,0.5492,0.5492,0.5492,0.5492,0.5492,0.5492,0.5375,0.5403,0.5399,0.5429,0.543,0.545,0.5456,0.5463,0.5468,0.5492,0.5505,0.5504,0.5508,0.5523,0.5537,0.5536,0.5543,0.5555,0.5553,0.55,0.5492,0.5485,0.5478,0.5556,0.5557,0.5608,0.5608,0.5609]},{"header":{"parameterUnit":"m.s-1","parameterCategory":1,"la1":30.2991,"la2":30.254,"lo1":-89.0895,"lo2":-89.0444,"dy":0.0017,"dx":0.0017,"nx":28,"ny":28,"refTime":"2025-11-15T09:00:00:Z","depth":0,"parameterNumber":3,"parameterNumberName":"V-component_of_WINDS"},"data":[0,0,0,0,0,0,0,0,0,0,0,0,0,0,0,0,0,0,0,0,0,0,0,0,0,0,0,0,0,0,0,0,0,0,0,0,0,0,0,0,0,0,0,0,0,0,0,0,0,0,0,0,0,0,0,0,0,0,-0.6761,-0.6762,0,-0.6808,-0.6808,-0.6809,-0.6847,-0.6848,-0.6848,-0.6848,-0.6895,-0.6895,-0.6896,0,0,0,0,0,0,0,0,0,0,0,0,0,-0.6706,-0.6707,-0.6761,-0.6762,-0.6763,-0.6808,-0.6808,-0.6809,-0.6847,-0.6848,-0.6848,-0.6848,-0.6894,-0.6895,-0.6896,0,0,0,0,0,0,0,0,0,0,0,0,0,-0.6739,-0.6707,-0.6761,-0.6787,-0.679,-0.6808,-0.6808,-0.6809,-0.6847,-0.6848,-0.6848,-0.6849,-0.6894,-0.6895,-0.6896,-0.6892,0,0,-0.69,-0.6901,0,0,0,0,0,0,0,0,-0.6737,-0.6741,-0.6783,-0.6785,-0.6788,-0.6822,-0.6806,-0.6837,-0.6847,-0.6825,-0.6848,-0.6849,-0.687,-0.6873,-0.6881,-0.6894,-0.6896,-0.69,-0.6901,-0.6902,-0.6902,0,0,0,0,0,0,0,-0.6734,-0.6739,-0.678,-0.6783,-0.6787,-0.6796,-0.6802,-0.6812,-0.6844,-0.6827,-0.683,-0.6835,-0.6872,-0.6879,-0.6882,-0.6897,-0.69,-0.6902,-0.6902,-0.6903,-0.6911,-0.6911,0,0,0,0,0,0,-0.6728,-0.6737,-0.6778,-0.6781,-0.6764,-0.6797,-0.6803,-0.6811,-0.6844,-0.6849,-0.6834,-0.6837,-0.6877,-0.688,-0.6884,-0.6882,-0.6902,-0.6903,-0.6904,-0.6912,-0.6911,-0.6911,0,0,0,0,0,0,-0.6727,-0.6732,-0.6776,-0.676,-0.6766,-0.6797,-0.6806,-0.6811,-0.6819,-0.6849,-0.6855,-0.6836,-0.6877,-0.6882,-0.689,-0.6884,-0.6904,-0.6905,-0.6912,-0.6912,-0.6911,-0.6878,0,0,0,0,0,0,-0.6725,-0.6731,-0.6729,-0.6759,-0.6767,-0.6782,-0.6805,-0.6812,-0.6821,-0.6825,-0.6852,-0.6858,-0.6878,-0.6888,-0.6891,-0.6886,-0.6906,-0.6913,-0.6912,-0.6911,-0.688,-0.6876,-0.6873,0,0,0,0,0,-0.6723,-0.6718,-0.6729,-0.6734,-0.6766,-0.6782,-0.6786,-0.681,-0.6821,-0.682,-0.6839,-0.6857,-0.6884,-0.6889,-0.6893,-0.6888,-0.6914,-0.6912,-0.6911,-0.6881,-0.6877,-0.6873,0,0,0,0,0,0,-0.6685,-0.6722,-0.6735,-0.6739,-0.6757,-0.6788,-0.6787,-0.6804,-0.6819,-0.6821,-0.685,-0.6856,-0.6862,-0.6876,-0.688,-0.6886,-0.6901,-0.6901,-0.6877,-0.6873,-0.687,-0.6867,-0.6907,0,0,0,0,0,-0.6678,-0.6688,-0.6719,-0.672,-0.6728,-0.6756,-0.6764,-0.6781,-0.68,-0.6808,-0.6828,-0.6846,-0.6859,-0.6867,-0.688,-0.6882,-0.6889,-0.688,-0.6877,-0.6874,-0.6874,-0.6877,-0.6874,-0.6906,-0.6906,-0.6907,0,0,-0.6662,-0.6683,-0.6687,-0.6713,-0.6729,-0.6739,-0.6762,-0.6771,-0.6779,-0.6809,-0.6819,-0.6834,-0.6856,-0.6862,-0.6865,-0.6873,-0.6866,-0.6873,-0.687,-0.6871,-0.6875,-0.6872,-0.687,-0.6906,-0.6906,-0.6906,0,0,-0.6638,-0.6655,-0.6658,-0.6674,-0.6698,-0.6716,-0.6717,-0.6746,-0.6757,-0.6768,-0.6791,-0.68,-0.6821,-0.6837,-0.6847,-0.6831,-0.6848,-0.6834,-0.6817,-0.682,-0.6817,-0.6815,-0.681,-0.6808,-0.6833,-0.6833,-0.6833,0,-0.6615,-0.6631,-0.6657,-0.6666,-0.6676,-0.6705,-0.6709,-0.6723,-0.6749,-0.6756,-0.6765,-0.6794,-0.681,-0.682,-0.6816,-0.6824,-0.6826,-0.6831,-0.6815,-0.6814,-0.6812,-0.6808,-0.6806,-0.6831,-0.6832,-0.6832,-0.6832,0,-0.6602,-0.6613,-0.6613,-0.6639,-0.665,-0.6655,-0.6683,-0.6691,-0.6707,-0.6725,-0.6736,-0.6757,-0.6776,-0.6779,-0.6795,-0.6792,-0.6797,-0.681,-0.6826,-0.6807,-0.6803,-0.6802,-0.6829,-0.683,-0.683,-0.683,0,0,-0.6556,-0.6597,-0.6597,-0.661,-0.6639,-0.6648,-0.6655,-0.6674,-0.6681,-0.6698,-0.6706,-0.6724,-0.6737,-0.6749,-0.6766,-0.6769,-0.6756,-0.6782,-0.6783,-0.6778,-0.6756,-0.6746,-0.6744,-0.6767,-0.6767,-0.6767,-0.6754,0,-0.6538,-0.6553,-0.6577,-0.6585,-0.6596,-0.6624,-0.663,-0.6649,-0.6666,-0.6678,-0.6697,-0.671,-0.6725,-0.6733,-0.6737,-0.6757,-0.6752,-0.6758,-0.6775,-0.6776,-0.677,-0.6742,-0.6731,-0.6718,-0.6753,-0.6753,-0.6752,0,-0.6518,-0.6535,-0.6544,-0.6574,-0.6579,-0.6585,-0.6605,-0.6616,-0.6638,-0.665,-0.6664,-0.6684,-0.6693,-0.6707,-0.6722,-0.6725,-0.6734,-0.6745,-0.6745,-0.6748,-0.6763,-0.6745,-0.6714,-0.6712,-0.675,-0.6751,-0.6751,0,-0.6485,-0.651,-0.6519,-0.6529,-0.6563,-0.6567,-0.6581,-0.6604,-0.6614,-0.6632,-0.6639,-0.6657,-0.6667,-0.6681,-0.6705,-0.6713,-0.6717,-0.6733,-0.6728,-0.6728,-0.6729,-0.6728,-0.67,-0.6732,-0.6732,-0.6733,-0.6733,0,-0.6462,-0.6467,-0.6505,-0.651,-0.6516,-0.6544,-0.655,-0.6567,-0.6587,-0.6597,-0.6621,-0.663,-0.6661,-0.6673,-0.6692,-0.6702,-0.6706,-0.6717,-0.6722,-0.6715,-0.6714,-0.6722,-0.6723,-0.6732,-0.6732,-0.6732,-0.6732,0,-0.6426,-0.6452,-0.6463,-0.6495,-0.6504,-0.6507,-0.6534,-0.6541,-0.656,-0.6572,-0.6576,-0.6606,-0.6622,-0.6648,-0.667,-0.6683,-0.669,-0.6698,-0.6683,-0.6686,-0.6681,-0.6681,-0.6657,-0.6655,-0.6688,-0.6687,-0.6687,0,-0.6411,-0.6415,-0.6448,-0.6456,-0.647,-0.6483,-0.6494,-0.6522,-0.6533,-0.6559,-0.6562,-0.658,-0.6596,-0.662,-0.6644,-0.6662,-0.6672,-0.6662,-0.6674,-0.6668,-0.6673,-0.6673,-0.6674,-0.6659,-0.6658,-0.6658,-0.6658,0,-0.638,-0.6393,-0.6408,-0.6428,-0.6441,-0.6458,-0.6476,-0.6481,-0.6513,-0.6524,-0.6541,-0.6553,-0.6577,-0.6595,-0.6617,-0.6632,-0.665,-0.6654,-0.6654,-0.6647,-0.6639,-0.6644,-0.6676,-0.6654,-0.6654,-0.6655,-0.6655,-0.6655,-0.6355,-0.6361,-0.6385,-0.6401,-0.6418,-0.6435,-0.6443,-0.6463,-0.6478,-0.65,-0.6516,-0.6532,-0.6555,-0.6587,-0.6601,-0.6614,-0.6622,-0.6622,-0.6622,-0.6622,-0.662,-0.6636,-0.6618,-0.6618,-0.6618,-0.6618,-0.6618,0,-0.6327,-0.6344,-0.6359,-0.6384,-0.6397,-0.6414,-0.6435,-0.6445,-0.6459,-0.6479,-0.6494,-0.6515,-0.6532,-0.6558,-0.6578,-0.6584,-0.6593,-0.6588,-0.6588,-0.6592,-0.6611,-0.6609,-0.658,-0.658,-0.658,-0.658,-0.658,-0.658,-0.6314,-0.6325,-0.6341,-0.636,-0.6378,-0.6394,-0.6405,-0.6421,-0.6437,-0.6459,-0.6474,-0.6491,-0.6513,-0.6535,-0.6553,-0.656,-0.6566,-0.6559,-0.6569,-0.6586,-0.659,-0.6593,-0.6592,-0.656,-0.656,-0.6549,-0.6549,-0.6548]}]]